Regional Weather Roundup
Issued by NWS Kansas City/Pleasant Hill, MO

Home | Current Version | Previous Version | Graphics & Text | Print | Product List | Glossary Off
Versions: 1 2 3 4 5 6 7 8 9 10 11 12 13 14 15 16 17 18 19 20 21 22 23 24 25 26 27 28 29 30 31 32 33 34 35 36 37 38 39 40 41 42 43 44 45 46 47 48 49 50

000
ASUS43 KEAX 201510
RWREAX

WEATHER ROUNDUP FOR EASTERN KANSAS AND NORTHWEST MISSOURI
NATIONAL WEATHER SERVICE KANSAS CITY/PLEASANT HILL MO
1000 AM CDT SUN APR 20 2014

KSZ040-057-103>105-MOZ028-029-037-043-201600-
...KANSAS CITY METROPOLITAN AREA...

CITY           SKY/WX    TMP DP  RH WIND       PRES   REMARKS
K.C. INTL      PTSUNNY   69  51  52 SW17G24   30.09S
K.C. DOWNTOWN  PTSUNNY   72  51  47 SW15      30.09S
LEES SUMMIT    MOSUNNY   68  50  52 SW17      30.11S
OLATHE - IXD   PTSUNNY   68  51  54 S17       30.11S
OLATHE - OJC   PTSUNNY   66  51  58 S14       30.10S
LAWRENCE       PTSUNNY   70  52  52 S10       30.08F

$$

MOZ001>008-011>017-020>025-030>033-038>040-044>046-053-054-201600-
...NORTHERN AND CENTRAL MISSOURI...

CITY           SKY/WX    TMP DP  RH WIND       PRES   REMARKS
ST. JOSEPH     MOSUNNY   71  51  49 SW18G28   30.06S
MOSBY          FAIR      66  52  59 S7        30.10S
WARRENSBURG    MOSUNNY  N/A N/A N/A S10       30.13S
WHITEMAN AFB   MOSUNNY   68  46  45 SW14      30.13S
CLINTON        SUNNY     70  54  56 S7        30.15S
SEDALIA        MOSUNNY   70  52  52 S14       30.15S
WARSAW         NOT AVBL
MARSHALL         N/A     73  54  49 SW8       30.14S
CHILLICOTHE      N/A     69  50  50 SW10      30.11F
MOBERLY        SUNNY     72  46  40 SW10      30.15F
KIRKSVILLE     SUNNY     71  47  42 S10       30.13F

$$

MOZ041-047>049-056>058-063>065-088>090-097-201600-
...EASTERN AND SOUTHERN MISSOURI...

CITY           SKY/WX    TMP DP  RH WIND       PRES   REMARKS
ST. LOUIS INTL PTSUNNY   70  41  34 S8        30.20S
SPIRIT OF STL  MOSUNNY   70  40  33 S10       30.19S
COLUMBIA       SUNNY     70  49  47 S12       30.16S
JEFFERSON CITY SUNNY     69  48  47 VRB5      30.16F
MEXICO         SUNNY     68  48  49 S9        30.16S
HANNIBAL       SUNNY     72  41  33 S8        30.16S
ROLLA          SUNNY     69  47  45 S14       30.17F
LEBANON        SUNNY     70  48  46 SW9       30.19S
OSAGE BEACH    SUNNY     72  48  43 S3        30.18S
SPRINGFIELD    SUNNY     68  51  54 S13       30.18S
BRANSON        MOSUNNY   68  50  52 S7        30.20F
NEVADA         MOSUNNY   72  52  49 S15       30.16S
JOPLIN         MOSUNNY   70  51  51 S13       30.16F
WEST PLAINS    SUNNY     68  43  40 SE8       30.22S
MALDEN         MOSUNNY   70  48  46 S6        30.22S

$$

IAZ060-094-KSZ022-034>040-054-083-096-NEZ052-066-093-201600-
...KANSAS...SOUTHEAST NEBRASKA AND IOWA...

CITY           SKY/WX    TMP DP  RH WIND       PRES   REMARKS
TOPEKA         PTSUNNY   70  52  52 S12G21    30.07S
MANHATTAN      MOSUNNY   72  52  49 S21       30.02F
EMPORIA        MOSUNNY   68  52  56 S16G24    30.08S
CHANUTE        MOSUNNY   67  52  58 S13       30.13S
WICHITA        CLOUDY    65  52  62 S16       30.07S
OMAHA          PTSUNNY   69  50  50 S13       29.99S
LINCOLN        PTSUNNY   70  50  49 SW15      29.99S
FALLS CITY     MOSUNNY   73  52  47 SW20G28   30.01S
LAMONI         SUNNY     69  49  48 SW16      30.07S
DES MOINES     MOSUNNY   72  49  44 SW12G20   30.05S

$$




USA.gov is the U.S. government's official web portal to all federal, state and local government web resources and services.